Regional Weather Roundup
Issued by NWS

Home | Current Version | Previous Version | Text Only | Print | Product List | Glossary On
Versions: 1 2 3 4 5 6 7 8 9 10 11 12 13 14 15 16 17 18 19 20 21 22 23 24 25 26 27 28 29 30 31 32 33 34 35 36 37 38 39 40 41 42 43 44 45 46 47 48 49 50
555
ASUS43 KTOP 070908
RWRKS

WEATHER ROUNDUP FOR KANSAS
NATIONAL WEATHER SERVICE GOODLAND KS
300 AM CST SUN FEB 07 2016

NOTE:  "FAIR" INDICATES FEW OR NO CLOUDS BELOW 12,000 FEET WITH NO
SIGNIFICANT WEATHER AND/OR OBSTRUCTIONS TO VISIBILITY.

KSZ001>006-013>018-027>032-041>047-071000-
NORTHWEST KANSAS

CITY           SKY/WX    TMP DP  RH WIND       PRES   REMARKS
GOODLAND       CLOUDY    29  22  75 NW13      30.13R WCI  19
HAYS           CLOUDY    37  23  56 NW13      30.07F WCI  29
HILL CITY      CLOUDY    37  28  70 NW10      30.08F WCI  30
RUSSELL        CLOUDY    37  29  72 NW14      30.05S WCI  28
$$

KSZ061>065-074>080-084>089-071000-
SOUTHWEST KANSAS

CITY           SKY/WX    TMP DP  RH WIND       PRES   REMARKS
DODGE CITY     CLOUDY    35  20  54 NW12      30.11R WCI  27
ELKHART          N/A     36  14  40 W9          N/A
GARDEN CITY    CLOUDY    36  24  62 N13       30.11R WCI  27
GREAT BEND     CLOUDY    36  21  55 NW12      30.08S WCI  27
LIBERAL        CLOUDY    30  12  47 W8        30.07F
PRATT          CLOUDY    32  18  55 W13       30.10R WCI  23
$$

KSZ066>073-081>083-090>101-071000-
SOUTHEAST KANSAS

CITY           SKY/WX    TMP DP  RH WIND       PRES   REMARKS
CHANUTE        CLEAR     37  28  70 S14       30.10F WCI  28
COFFEYVILLE    CLOUDY    36  27  69 S10       30.14F WCI  28
HUTCHINSON     CLOUDY    35  20  54 W9        30.07R
MEDICINE LODGE   N/A     30  21  69 CALM      30.09S
NEWTON         CLOUDY    36  21  55 SW14      30.09R WCI  27
PARSONS        CLEAR     37  27  67 S8        30.13F
WICHITA INTL   CLOUDY    34  25  69 S10       30.07F WCI  26
WICHITA JABRA  CLOUDY    37  25  61 SW16G22   30.06F WCI  28
WICHITA MCCONL CLOUDY    35  25  68 S13       30.08F WCI  26
WINFIELD       CLEAR     35  26  69 S12       30.12F WCI  27
$$

KSZ007>012-019>026-033>040-048>060-102>105-071000-
NORTHEAST KANSAS

CITY           SKY/WX    TMP DP  RH WIND       PRES   REMARKS
CONCORDIA      CLOUDY    35  27  72 W12       30.02R WCI  27
EMPORIA        CLOUDY    40  25  55 SW24G30   30.02F WCI  29
LAWRENCE       CLOUDY    40  26  57 SW12G21   30.01F WCI  33
MANHATTAN      CLOUDY    39  25  57 W9        30.01S
MARYSVILLE     CLOUDY    34  28  80 W5        29.98S
OLATHE IND     CLOUDY    38  27  64 S17       30.04F WCI  28
OLATHE EXE     CLOUDY    38  26  62 SW13      30.03F WCI  30
SALINA         CLOUDY    39  23  52 SW7       30.04F
TOPEKA BILLARD MOCLDY    41  25  53 SW10      30.00F
TOPEKA FORBES  PTCLDY    38  27  64 SW12      29.99F WCI  30
$$




USA.gov is the U.S. government's official web portal to all federal, state and local government web resources and services.